Location: Caltech
(34.1382°N, 118.1253°W)
Time: 06:47:42
(UTC-07:00)

Cosmos 44 Rocket - Visible Passes

Search period start: 01 September 2014 00:00
Search period end: 11 September 2014 00:00
Orbit: 654 x 739 km, 65.1° (Epoch: 30 August)

Date Brightness Start Highest point End Pass type
(mag) Time Alt. Az. Time Alt. Az. Time Alt. Az.
01 Sep 4.6 04:45:08 13° S 04:49:20 38° ESE 04:53:56 10° NE visible
02 Sep 5.9 03:48:26 11° SE 03:50:27 14° ESE 03:53:00 10° ENE visible
02 Sep 3.5 05:27:15 14° SW 05:31:31 59° WNW 05:36:26 10° NNE visible
03 Sep 4.0 04:30:26 34° S 04:32:20 52° ESE 04:37:11 10° NE visible
04 Sep 5.5 03:33:32 19° ESE 03:33:32 19° ESE 03:36:55 10° ENE visible
04 Sep 3.8 05:12:19 27° WSW 05:14:37 43° WNW 05:19:23 10° NNE visible
05 Sep 3.4 04:15:19 72° ESE 04:15:22 72° ESE 04:20:21 10° NNE visible
05 Sep 5.3 05:54:45 10° W 05:57:24 14° NW 06:00:02 10° NNW visible
06 Sep 5.6 03:18:14 21° ENE 03:18:14 21° ENE 03:20:30 10° NE visible
06 Sep 4.2 04:57:01 31° WNW 04:57:46 32° NW 05:02:14 10° N visible
07 Sep 4.1 03:59:51 48° NNE 03:59:51 48° NNE 04:03:26 10° NNE visible
07 Sep 5.5 05:39:32 10° WNW 05:40:41 11° NW 05:41:49 10° NNW visible
08 Sep 5.9 03:02:38 17° NE 03:02:38 17° NE 03:03:53 10° NE visible
08 Sep 4.7 04:41:24 24° NW 04:41:24 24° NW 04:45:00 10° N visible
09 Sep 5.1 03:44:07 27° NNE 03:44:07 27° NNE 03:46:26 10° NNE visible
10 Sep 6.3 02:46:48 12° NE 02:46:48 12° NE 02:47:09 10° NE visible
10 Sep 5.3 04:25:33 17° NNW 04:25:33 17° NNW 04:27:39 10° N visible
